GW5434 Weather Reports


Display with metric or nautical units.
time (UTC)temp
F
wind
direction
speed
MPH
gust
MPH
rain 1hr
in
rain 24hr
in
rain mn
in
humidity
%
barometer
mb
20260509220011 68 136 1.0 4.0 0.00 1.14 1.14 88 1012.2
20260509214517 68 159 1.0 4.0 0.00 1.16 1.14 88 1012.1
20260509213020 68 176 1.0 3.0 0.00 1.16 1.14 87 1012.0
20260509211505 68 139 0.0 2.0 0.00 1.16 1.14 89 1012.1
20260509210007 68 134 1.0 3.0 0.00 1.19 1.14 88 1012.3
20260509204511 69 174 0.0 1.0 0.00 1.22 1.14 88 1012.5
20260509203023 68 204 0.0 3.0 0.00 1.25 1.14 88 1012.6
20260509201521 68 169 0.0 2.0 0.00 1.29 1.14 88 1012.5
20260509200006 68 252 0.0 2.0 0.00 1.30 1.14 88 1012.5
20260509194514 68 269 0.0 5.0 0.00 1.33 1.14 87 1012.5
20260509193021 69 290 2.0 5.0 0.00 1.37 1.14 86 1012.8
20260509191520 69 68 0.0 5.0 0.00 1.40 1.14 87 1012.9
20260509190026 69 209 0.0 4.0 0.00 1.44 1.14 86 1012.8
20260509184505 69 243 1.0 5.0 0.00 1.46 1.14 86 1012.7
20260509183015 68 176 0.0 3.0 0.00 1.49 1.14 87 1012.7
20260509181517 68 273 1.0 3.0 0.00 1.53 1.14 87 1012.6
20260509180020 68 252 0.0 0.0 0.00 1.58 1.14 87 1012.5
20260509174524 68 256 0.0 0.0 0.00 1.60 1.14 89 1012.7
20260509173007 67 148 0.0 0.0 0.00 1.64 1.14 90 1012.7
20260509171514 67 257 0.0 0.0 0.00 1.73 1.14 90 1013.0
20260509170021 67 240 0.0 0.0 0.00 1.77 1.14 89 1013.6
20260509164523 67 150 0.0 0.0 0.00 1.81 1.14 91 1013.7
20260509163030 66 154 2.0 5.0 0.00 1.85 1.14 91 1014.0
20260509161528 66 143 0.0 1.0 0.00 1.89 1.14 94 1013.7
20260509160031 64 150 1.0 2.0 0.00 1.92 1.14 94 1013.6
20260509154518 64 174 1.0 2.0 0.00 1.93 1.14 94 1013.5
20260509153038 64 173 0.0 1.0 0.00 1.93 1.14 95 1013.3
20260509151524 64 23 0.0 1.0 0.00 1.93 1.14 95 1013.2
20260509150030 64 23 0.0 1.0 0.01 1.94 1.14 95 1013.2
20260509144527 63 23 0.0 2.0 0.04 1.94 1.14 95 1013.3
20260509143020 63 154 0.0 0.0 0.12 1.94 1.14 96 1013.1
20260509141533 63 145 0.0 1.0 0.19 1.94 1.14 95 1012.6
20260509140026 63 156 1.0 7.0 0.25 1.93 1.13 95 1012.5
20260509134528 63 144 3.0 8.0 0.27 1.90 1.10 95 1012.5
20260509133022 63 116 1.0 5.0 0.24 1.82 1.02 95 1012.9
20260509131523 63 153 2.0 3.0 0.21 1.75 0.95 95 1013.2
20260509130007 63 110 0.0 2.0 0.17 1.68 0.88 95 1013.7
20260509124510 63 321 0.0 0.0 0.25 1.63 0.83 95 1014.5
20260509123016 63 296 0.0 2.0 0.48 1.58 0.78 95 1014.6
20260509121518 63 323 1.0 3.0 0.71 1.54 0.74 95 1014.1
20260509120023 63 282 2.0 7.0 0.70 1.51 0.71 95 1013.7
20260509114504 63 329 2.0 6.0 0.58 1.38 0.58 95 1014.3
20260509113012 63 264 3.0 17.0 0.30 1.10 0.30 96 1014.9
20260509111514 64 300 7.0 13.0 0.03 0.83 0.03 96 1014.1
20260509110020 64 174 0.0 1.0 0.01 0.81 0.01 96 1012.0
20260509104526 64 113 0.0 1.0 0.00 0.80 0.00 96 1011.5
20260509103009 64 127 0.0 1.0 0.00 0.80 0.00 96 1011.3
20260509101515 63 56 0.0 2.0 0.00 0.80 0.00 96 1011.5
20260509100019 63 99 0.0 3.0 0.00 0.80 0.00 96 1011.2
20260509094523 63 335 0.0 3.0 0.00 0.80 0.00 96 1011.4
20260509093024 63 31 0.0 2.0 0.00 0.80 0.00 96 1011.2
20260509091512 63 174 1.0 2.0 0.00 0.80 0.00 96 1011.2
20260509090021 63 169 0.0 0.0 0.00 0.80 0.00 96 1010.9
20260509084522 63 46 0.0 0.0 0.00 0.80 0.00 96 1011.0
20260509083024 63 346 0.0 0.0 0.00 0.80 0.00 96 1011.4
20260509081528 63 332 0.0 0.0 0.00 0.80 0.00 96 1011.9
20260509080013 63 99 0.0 0.0 0.00 0.80 0.00 96 1011.8
20260509074516 63 295 0.0 0.0 0.00 0.80 0.00 96 1012.1
20260509073033 63 295 0.0 2.0 0.00 0.80 0.00 96 1012.2
20260509071524 63 39 0.0 0.0 0.00 0.80 0.00 96 1012.3
20260509070028 63 129 0.0 0.0 0.00 0.80 0.00 96 1011.9
20260509064514 63 129 0.0 0.0 0.00 0.80 0.00 96 1012.0
20260509063028 63 129 0.0 1.0 0.00 0.80 0.00 96 1012.1
20260509061520 63 117 0.0 1.0 0.00 0.80 0.00 96 1012.6
20260509060028 63 34 0.0 3.0 0.00 0.80 0.00 96 1012.8
20260509054527 63 119 0.0 0.0 0.00 0.80 0.00 96 1012.5
20260509053024 63 119 0.0 1.0 0.00 0.80 0.00 96 1012.8
20260509051521 63 156 0.0 2.0 0.00 0.80 0.00 96 1013.0
20260509050024 62 119 0.0 1.0 0.00 0.80 0.00 96 1012.9
20260509044524 62 174 0.0 2.0 0.00 0.80 0.80 96 1012.5
20260509043029 62 115 0.0 0.0 0.00 0.80 0.80 96 1012.7
20260509041517 62 134 0.0 0.0 0.00 0.80 0.80 95 1012.7
20260509040021 62 143 0.0 0.0 0.00 0.80 0.80 95 1012.8
20260509034524 62 174 0.0 0.0 0.00 0.80 0.80 96 1013.1
20260509033010 62 144 0.0 0.0 0.00 0.80 0.80 95 1013.1
20260509031514 62 158 0.0 0.0 0.00 0.80 0.80 95 1013.1
20260509030020 62 130 0.0 0.0 0.00 0.80 0.80 95 1012.7
20260509024524 62 110 0.0 0.0 0.00 0.80 0.80 95 1012.8
20260509023025 63 110 0.0 0.0 0.00 0.80 0.80 95 1012.5
20260509021510 63 59 0.0 0.0 0.00 0.80 0.80 95 1012.4
20260509020014 63 109 0.0 0.0 0.00 0.80 0.80 95 1012.4
20260509014526 63 283 0.0 1.0 0.00 0.80 0.80 95 1012.3
20260509013023 63 119 0.0 0.0 0.00 0.80 0.80 95 1012.0
20260509011526 64 122 0.0 2.0 0.00 0.80 0.80 95 1012.3
20260509010034 64 9 1.0 1.0 0.00 0.80 0.80 94 1012.7
20260509004530 64 297 1.0 2.0 0.00 0.80 0.80 94 1012.9
20260509003021 64 356 0.0 1.0 0.00 0.80 0.80 94 1012.9
20260509001526 64 313 0.0 0.0 0.00 0.80 0.80 94 1012.5
20260509000026 64 312 0.0 0.0 0.00 0.80 0.80 94 1012.5
20260508234530 64 311 0.0 1.0 0.00 0.80 0.80 94 1012.5
20260508233034 64 110 0.0 1.0 0.00 0.80 0.80 93 1012.9
20260508231522 64 174 0.0 1.0 0.00 0.80 0.80 93 1012.8
20260508230025 64 174 0.0 1.0 0.00 0.80 0.80 94 1012.9
20260508224528 64 98 1.0 2.0 0.02 0.80 0.80 94 1012.4
20260508223004 64 173 1.0 4.0 0.03 0.80 0.80 94 1012.5
20260508221505 63 93 1.0 4.0 0.03 0.80 0.80 94 1012.5